Starlink 32027

operational
NORAD ID: 60143 Int'l Des: 2024-120 Owner: SPXS Country: US Constellation: starlink
LEOCIRCULAR

About Starlink 32027

Description loading...

Live Position

Loading 3D Globe...

Upcoming Passes

Altitude History

Altitude vs Time

uPlot chart will show altitude changes over time

Two-Line Element Set

1 60143U 24120J 25258.73257656 .00000309 00000-0 22559-4 0 9995
2 60143 53.1614 52.2451 0001023 88.1259 271.9859 15.30194611 69674
Epoch: Sep 15, 2025 • Age: 16 hours

Current Status

Altitude 481.0 km
Velocity 7.63 km/s
Sub-Earth Point 53.06°N, 8.69°W
Launch Date Jun 27, 2024
Age 1.2 years
Type internet

Technical Details

Classification Payload
Mass 730.00 kg
Dry Mass 700.00 kg
Total Mass 730.00 kg
Length 0.30 m
Diameter 4.10 m
Span 29.00 m
Shape Box + pan
Manufacturer SPXS
Bus Type Starlink V2M
Phase Status In Orbit
Owner/State SPXS/US

Large Constellations

Loading constellations...